[[{"header":{"parameterUnit":"m.s-1","parameterCategory":1,"la1":30.2991,"la2":30.254,"lo1":-89.0895,"lo2":-89.0444,"dy":0.0017,"dx":0.0017,"nx":28,"ny":28,"refTime":"2024-07-04T21:00:00:Z","depth":0,"parameterNumber":2,"parameterNumberName":"U-component_of_WINDS"},"data":[0,0,0,0,0,0,0,0,0,0,0,0,0,0,0,0,0,0,0,0,0,0,0,0,0,0,0,0,0,0,0,0,0,0,0,0,0,0,0,0,0,0,0,0,0,0,0,0,0,0,0,0,0,0,0,0,0,0,2.0744,2.0744,0,2.0751,2.0751,2.0751,2.0724,2.0723,2.0723,2.0722,2.0728,2.0729,2.073,0,0,0,0,0,0,0,0,0,0,0,0,0,2.0709,2.071,2.0744,2.0744,2.0745,2.0751,2.0751,2.0751,2.0724,2.0723,2.0722,2.0722,2.0728,2.0729,2.073,0,0,0,0,0,0,0,0,0,0,0,0,0,2.0721,2.071,2.0744,2.0732,2.0731,2.0751,2.0751,2.0751,2.0725,2.0723,2.0722,2.0721,2.0728,2.0729,2.073,2.0763,0,0,2.0735,2.0735,0,0,0,0,0,0,0,0,2.072,2.0722,2.0734,2.0733,2.0732,2.0736,2.0741,2.0755,2.0725,2.0727,2.0722,2.0721,2.0732,2.0733,2.0737,2.0763,2.0763,2.0735,2.0736,2.0736,2.0736,0,0,0,0,0,0,0,2.0719,2.0722,2.0747,2.0734,2.0733,2.0726,2.0727,2.0743,2.0736,2.0727,2.0725,2.0726,2.0731,2.0735,2.0736,2.0763,2.0735,2.0736,2.0737,2.0737,2.0816,2.0818,0,0,0,0,0,0,2.072,2.0721,2.0747,2.0747,2.0723,2.0728,2.0728,2.0736,2.0736,2.0735,2.0727,2.0725,2.0734,2.0735,2.0737,2.0774,2.0736,2.0737,2.0738,2.0815,2.0817,2.0818,0,0,0,0,0,0,2.0719,2.0723,2.0746,2.0734,2.0736,2.073,2.0738,2.0736,2.0741,2.0736,2.0734,2.0733,2.0733,2.0735,2.0756,2.0774,2.0738,2.0739,2.0814,2.0816,2.0817,2.0849,0,0,0,0,0,0,2.0719,2.0723,2.0735,2.0734,2.0737,2.0766,2.0739,2.0737,2.0743,2.074,2.0741,2.074,2.0732,2.0754,2.0758,2.0775,2.074,2.0812,2.0815,2.0817,2.0847,2.0852,2.0857,0,0,0,0,0,2.0717,2.0743,2.0735,2.0739,2.0752,2.0767,2.0769,2.0759,2.0745,2.0757,2.0754,2.074,2.0772,2.0757,2.076,2.0778,2.0811,2.0814,2.0817,2.0844,2.0851,2.0857,0,0,0,0,0,0,2.0746,2.0743,2.0734,2.0761,2.0764,2.0763,2.0777,2.0767,2.0774,2.0771,2.0759,2.0759,2.0783,2.0783,2.0767,2.081,2.0789,2.0792,2.0809,2.0815,2.082,2.0819,2.0741,0,0,0,0,0,2.0755,2.0768,2.0765,2.0788,2.0791,2.0784,2.079,2.0783,2.0786,2.0787,2.0786,2.079,2.0801,2.0808,2.0818,2.0847,2.0847,2.0861,2.0866,2.087,2.0873,2.0889,2.0895,2.0828,2.0828,2.0828,0,0,2.0774,2.0774,2.0783,2.0794,2.0796,2.0809,2.0785,2.0801,2.081,2.079,2.081,2.0809,2.0813,2.0838,2.0849,2.0839,2.0892,2.0874,2.0877,2.0878,2.0893,2.0899,2.0905,2.083,2.0829,2.0829,0,0,2.0816,2.0818,2.0838,2.084,2.0844,2.0839,2.0844,2.0844,2.0843,2.0863,2.0848,2.086,2.0879,2.0882,2.0886,2.093,2.0918,2.0934,2.096,2.0975,2.098,2.0985,2.1,2.1006,2.0937,2.0937,2.0937,0,2.084,2.0859,2.0849,2.0865,2.0871,2.0853,2.0873,2.0876,2.0883,2.0887,2.0875,2.0899,2.09,2.0926,2.0937,2.0941,2.0946,2.0933,2.098,2.0985,2.0989,2.1004,2.101,2.0939,2.0939,2.0939,2.0938,0,2.0888,2.0902,2.0917,2.0924,2.0932,2.095,2.0942,2.0951,2.0943,2.094,2.0961,2.0962,2.0971,2.0977,2.097,2.1002,2.0996,2.0983,2.0961,2.0998,2.1011,2.1017,2.0942,2.0941,2.0941,2.094,0,0,2.0946,2.0948,2.0954,2.0957,2.096,2.0971,2.0989,2.0998,2.1006,2.1011,2.1025,2.1042,2.103,2.1035,2.1028,2.1041,2.1076,2.1026,2.1026,2.1035,2.1112,2.1121,2.1128,2.1068,2.1069,2.107,2.1111,0,2.0987,2.1017,2.1009,2.1039,2.1051,2.1036,2.1051,2.1055,2.1052,2.1063,2.106,2.1072,2.1056,2.1058,2.1071,2.1069,2.1091,2.1066,2.1081,2.1081,2.1079,2.1135,2.1144,2.1183,2.1116,2.1117,2.1118,0,2.1038,2.1046,2.1077,2.1078,2.1083,2.1097,2.1106,2.1116,2.112,2.1118,2.1123,2.1114,2.1131,2.111,2.1134,2.1117,2.1123,2.1123,2.1124,2.1124,2.1101,2.1136,2.1196,2.1201,2.1126,2.1125,2.1125,0,2.1077,2.1095,2.1116,2.112,2.1122,2.1132,2.1134,2.1136,2.1143,2.115,2.1154,2.1164,2.1169,2.1177,2.117,2.1155,2.1194,2.1173,2.1192,2.1193,2.12,2.12,2.1261,2.1206,2.1206,2.1206,2.1205,0,2.1123,2.1142,2.1134,2.1147,2.1168,2.1159,2.1181,2.1181,2.1184,2.1196,2.1183,2.1195,2.1186,2.1197,2.1192,2.1212,2.1215,2.1213,2.1211,2.1213,2.1214,2.1216,2.1213,2.1207,2.1207,2.1206,2.1206,0,2.1169,2.1165,2.1186,2.1187,2.1188,2.1204,2.1204,2.1216,2.1214,2.123,2.1233,2.1229,2.1241,2.1235,2.1249,2.1245,2.1271,2.1266,2.127,2.1268,2.1287,2.1285,2.1352,2.136,2.13,2.1301,2.1301,0,2.1198,2.1213,2.1216,2.1223,2.1226,2.1238,2.1245,2.1237,2.1244,2.125,2.1262,2.1273,2.1282,2.1303,2.1301,2.1311,2.1306,2.1329,2.1307,2.1309,2.1305,2.1304,2.1305,2.1332,2.1333,2.1334,2.1334,0,2.125,2.1247,2.1257,2.1267,2.1276,2.1283,2.1289,2.1296,2.1288,2.1297,2.131,2.1317,2.1331,2.1343,2.1352,2.1353,2.1342,2.1341,2.1346,2.1348,2.1349,2.1348,2.128,2.1339,2.1339,2.1338,2.1338,2.1338,2.1288,2.1301,2.1304,2.1316,2.132,2.1327,2.1338,2.1337,2.1348,2.1358,2.1353,2.1368,2.1372,2.1383,2.1386,2.1398,2.1389,2.1396,2.1398,2.1399,2.1402,2.1348,2.14,2.1399,2.1399,2.1399,2.1399,0,2.1339,2.1341,2.1352,2.1361,2.137,2.136,2.1367,2.1375,2.1389,2.1394,2.1403,2.1418,2.1429,2.1429,2.1439,2.1449,2.1444,2.1452,2.145,2.1451,2.1409,2.1404,2.1455,2.1455,2.1455,2.1455,2.1455,2.1455,2.1366,2.1386,2.1384,2.1407,2.1408,2.1423,2.1428,2.1433,2.1437,2.1455,2.1464,2.1464,2.1467,2.1477,2.1487,2.1487,2.1491,2.15,2.1498,2.1459,2.1454,2.1448,2.1443,2.1502,2.1502,2.1538,2.1539,2.1539]},{"header":{"parameterUnit":"m.s-1","parameterCategory":1,"la1":30.2991,"la2":30.254,"lo1":-89.0895,"lo2":-89.0444,"dy":0.0017,"dx":0.0017,"nx":28,"ny":28,"refTime":"2024-07-04T21:00:00:Z","depth":0,"parameterNumber":3,"parameterNumberName":"V-component_of_WINDS"},"data":[0,0,0,0,0,0,0,0,0,0,0,0,0,0,0,0,0,0,0,0,0,0,0,0,0,0,0,0,0,0,0,0,0,0,0,0,0,0,0,0,0,0,0,0,0,0,0,0,0,0,0,0,0,0,0,0,0,0,2.1481,2.1482,0,2.153,2.153,2.1531,2.1558,2.1558,2.1558,2.1558,2.1603,2.1604,2.1605,0,0,0,0,0,0,0,0,0,0,0,0,0,2.1408,2.1409,2.1481,2.1482,2.1483,2.153,2.153,2.1531,2.1558,2.1558,2.1558,2.1558,2.1603,2.1604,2.1605,0,0,0,0,0,0,0,0,0,0,0,0,0,2.1446,2.141,2.1481,2.1502,2.1504,2.1529,2.153,2.1531,2.1558,2.1558,2.1558,2.1558,2.1602,2.1604,2.1606,2.1613,0,0,2.1611,2.1611,0,0,0,0,0,0,0,0,2.1444,2.1449,2.1498,2.15,2.1503,2.1538,2.1521,2.1558,2.1558,2.1537,2.1558,2.1558,2.1581,2.1584,2.1593,2.1615,2.1617,2.1611,2.1612,2.1612,2.1613,0,0,0,0,0,0,0,2.1441,2.1447,2.15,2.1499,2.1502,2.1507,2.1513,2.1528,2.1558,2.1539,2.1541,2.1547,2.1582,2.1591,2.1594,2.1617,2.1611,2.1612,2.1613,2.1614,2.1646,2.1646,0,0,0,0,0,0,2.1436,2.1445,2.1499,2.1502,2.1474,2.1508,2.1515,2.1527,2.1558,2.1562,2.1547,2.1548,2.1588,2.1592,2.1596,2.1606,2.1612,2.1614,2.1615,2.1647,2.1646,2.1646,0,0,0,0,0,0,2.1434,2.1441,2.1497,2.1474,2.1481,2.1509,2.1523,2.1527,2.1537,2.1563,2.1568,2.1551,2.1589,2.1594,2.1608,2.1608,2.1615,2.1616,2.1647,2.1647,2.1646,2.1627,0,0,0,0,0,0,2.1432,2.144,2.1444,2.1474,2.1483,2.151,2.1523,2.1528,2.154,2.1542,2.1568,2.1573,2.1589,2.1606,2.161,2.161,2.1618,2.1647,2.1647,2.1646,2.1627,2.1626,2.1624,0,0,0,0,0,2.1429,2.1436,2.1444,2.1451,2.1489,2.151,2.1515,2.1535,2.154,2.1543,2.156,2.1572,2.1607,2.1607,2.1612,2.1613,2.1647,2.1647,2.1646,2.1628,2.1626,2.1624,0,0,0,0,0,0,2.1404,2.144,2.145,2.1466,2.1485,2.1515,2.152,2.1532,2.1549,2.155,2.1572,2.1578,2.1591,2.1603,2.1602,2.1621,2.1628,2.1629,2.1613,2.1611,2.1609,2.1606,2.1619,0,0,0,0,0,2.14,2.1416,2.1446,2.1458,2.1467,2.1492,2.1502,2.1516,2.1535,2.1543,2.1561,2.1578,2.1593,2.1603,2.1618,2.1629,2.1635,2.1632,2.163,2.1629,2.1629,2.1636,2.1635,2.1645,2.1645,2.1645,0,0,2.1393,2.1415,2.1423,2.1453,2.1469,2.1484,2.1498,2.1513,2.1523,2.1545,2.156,2.1574,2.1595,2.1608,2.1614,2.1618,2.1628,2.1629,2.1627,2.1629,2.1635,2.1634,2.1633,2.1645,2.1645,2.1645,0,0,2.1387,2.1405,2.1417,2.1433,2.1458,2.1474,2.1477,2.1504,2.1515,2.1531,2.1547,2.1559,2.1584,2.1599,2.1609,2.1607,2.1618,2.1611,2.1604,2.1609,2.1608,2.1608,2.1607,2.1606,2.1612,2.1612,2.1612,0,2.1374,2.1398,2.1421,2.1435,2.1447,2.1468,2.1479,2.1493,2.1521,2.1528,2.1533,2.1565,2.158,2.1597,2.1596,2.1604,2.1607,2.1609,2.1607,2.1607,2.1606,2.1606,2.1605,2.1611,2.1611,2.1611,2.1611,0,2.1381,2.1397,2.1403,2.1431,2.1444,2.1456,2.1479,2.1489,2.1501,2.1517,2.1532,2.1551,2.1571,2.1576,2.1587,2.1593,2.1595,2.1603,2.1611,2.1604,2.1604,2.1604,2.1609,2.161,2.161,2.161,0,0,2.1361,2.1401,2.1403,2.1416,2.1444,2.1456,2.1469,2.1489,2.1497,2.1515,2.1525,2.1546,2.1554,2.1565,2.1579,2.1583,2.158,2.1591,2.1592,2.1588,2.1587,2.1581,2.1581,2.1588,2.1588,2.1588,2.1586,0,2.1359,2.1385,2.1405,2.1422,2.1437,2.1456,2.1467,2.1485,2.1499,2.1512,2.1527,2.1542,2.1551,2.1558,2.1564,2.158,2.1581,2.158,2.1597,2.1597,2.1591,2.1581,2.1575,2.1572,2.1586,2.1586,2.1586,0,2.136,2.1379,2.1398,2.1425,2.1432,2.1442,2.1461,2.1474,2.1494,2.1504,2.1517,2.1531,2.1543,2.1549,2.1566,2.1565,2.1573,2.1582,2.1582,2.1584,2.1591,2.1583,2.1571,2.1571,2.1586,2.1586,2.1586,0,2.1344,2.1373,2.1389,2.1399,2.143,2.1437,2.145,2.147,2.148,2.1497,2.1504,2.1521,2.1531,2.1543,2.156,2.1563,2.1575,2.1583,2.1583,2.1582,2.1585,2.1584,2.1574,2.1589,2.1589,2.1589,2.1589,0,2.1339,2.135,2.1382,2.1391,2.1403,2.1425,2.1436,2.1451,2.1468,2.148,2.1497,2.1507,2.153,2.1542,2.1555,2.1567,2.157,2.1578,2.1581,2.1577,2.1576,2.1582,2.1583,2.1589,2.1589,2.1589,2.1589,0,2.1323,2.1345,2.1363,2.1391,2.1398,2.1406,2.143,2.1439,2.1454,2.1468,2.1472,2.1495,2.1511,2.1529,2.155,2.1559,2.1569,2.1574,2.1563,2.1565,2.1564,2.1563,2.1557,2.1558,2.1572,2.1572,2.1572,0,2.1319,2.1328,2.1358,2.1368,2.1381,2.1396,2.1407,2.1428,2.1439,2.1462,2.1468,2.1485,2.1499,2.1522,2.154,2.1555,2.1561,2.1558,2.1563,2.1558,2.1561,2.156,2.1561,2.1556,2.1556,2.1556,2.1556,0,2.131,2.132,2.1337,2.1357,2.137,2.1386,2.1403,2.141,2.1434,2.1445,2.1462,2.1473,2.1495,2.151,2.1528,2.154,2.1551,2.1554,2.1555,2.155,2.1543,2.1546,2.1559,2.1554,2.1554,2.1554,2.1554,2.1554,2.13,2.1308,2.1331,2.1348,2.1364,2.1379,2.1389,2.1406,2.142,2.1441,2.1452,2.1468,2.1486,2.1511,2.1522,2.1534,2.1538,2.1539,2.154,2.154,2.1538,2.1541,2.1537,2.1537,2.1537,2.1537,2.1537,0,2.1291,2.1306,2.1323,2.1346,2.136,2.1371,2.139,2.14,2.1414,2.1431,2.1445,2.1464,2.1479,2.1498,2.1514,2.152,2.1525,2.1523,2.1523,2.1525,2.1533,2.1531,2.1518,2.1518,2.1518,2.1518,2.1518,2.1518,2.1288,2.1304,2.1316,2.1339,2.1354,2.1371,2.1381,2.1394,2.1408,2.1428,2.1442,2.1455,2.1472,2.1489,2.1503,2.1508,2.1513,2.151,2.1516,2.1523,2.1525,2.1527,2.1525,2.1511,2.1511,2.1507,2.1507,2.1507]}]]